Regional Weather Roundup
Issued by NWS

Home | Current Version | Previous Version | Graphics & Text | Print | Product List | Glossary On
Versions: 1 2 3 4 5 6 7 8 9 10 11 12 13 14 15 16 17 18 19 20 21 22 23 24 25 26 27 28 29 30 31 32 33 34 35 36 37 38 39 40 41 42 43 44 45 46 47 48 49 50
000
ASUS43 KOAX 300402
RWRNE

WEATHER ROUNDUP FOR NEBRASKA
NATIONAL WEATHER SERVICE OMAHA NE
1100 PM CDT WED JUL 29 2015

NOTES: SATELLITE DATA IS BEING USED TO AUGMENT CLOUD COVER ABOVE
       12000 FEET.
       "FAIR" INDICATES FEW OR NO CLOUDS BELOW 12,000 FEET WITH NO
       SIGNIFICANT WEATHER AND/OR OBSTRUCTIONS TO VISIBILITY.

  * THESE STATIONS DO NOT REPORT WEATHER SUCH AS RAIN...SNOW OR FOG.

NEZ001>004-019>022-054>056-300500-
NEBRASKA PANHANDLE

CITY           SKY/WX    TMP DP  RH WIND       PRES   REMARKS
SCOTTSBLUFF    PTCLDY    69  55  60 E7        30.22R
ALLIANCE       CLEAR     63  51  65 S9        30.22R
CHADRON        CLEAR     67  50  54 CALM      30.21R
KIMBALL        PTCLDY    68  43  40 SE9       30.28R
SIDNEY         PTCLDY    68  42  38 S13       30.28R
$$

NEZ057>060-069>072-079>082-300500-
SOUTHWEST NEBRASKA

CITY           SKY/WX    TMP DP  RH WIND       PRES   REMARKS
NORTH PLATTE   CLEAR     60  55  83 E5        30.24R
IMPERIAL       CLEAR     65  48  54 S9        30.26R
MCCOOK         CLEAR     67  56  67 E3        30.25R
$$

NEZ005>010-023>029-035>040-094-300500-
NORTH CENTRAL NEBRASKA

CITY           SKY/WX    TMP DP  RH WIND       PRES   REMARKS
VALENTINE      CLEAR     73  47  39 NE3       30.18R
AINSWORTH      CLEAR     68  55  62 S9        30.18S
BROKEN BOW     CLEAR     61  56  83 S3        30.23R
ORD            CLEAR     64  56  75 S8        30.19R
$$

NEZ041-046>049-061>064-073>077-083>087-300500-
SOUTH CENTRAL NEBRASKA

CITY           SKY/WX    TMP DP  RH WIND       PRES   REMARKS
GRAND ISLAND   CLEAR     66  57  72 SW6       30.22R
AURORA         CLEAR     63  60  90 SW3       30.20S
HASTINGS       CLEAR     64  58  80 CALM      30.22R
KEARNEY *      CLEAR     66  55  68 CALM      30.23S
$$

NEZ011>018-030>034-042>045-300500-
NORTHEAST NEBRASKA

CITY           SKY/WX    TMP DP  RH WIND       PRES   REMARKS
NORFOLK        CLEAR     70  60  70 S12       30.15S
BLAIR          CLEAR     68  58  70 SW7       30.16S
COLUMBUS *     CLEAR     72  57  60 SW7       30.18R
FREMONT        CLEAR     71  59  65 SW6       30.17R
TEKAMAH        CLEAR     68  63  84 SW7       30.14R
$$

NEZ050>053-065>068-078-088>093-300500-
SOUTHEAST NEBRASKA

CITY           SKY/WX    TMP DP  RH WIND       PRES   REMARKS
LINCOLN        CLEAR     70  58  65 CALM      30.18R
OMAHA EPPLEY   CLEAR     71  62  73 SE6       30.15R
FALLS CITY     CLEAR     72  67  84 CALM      30.16R
$$

NEZ044-045-051>053-067-300500-
OMAHA AREA

CITY           SKY/WX    TMP DP  RH WIND       PRES   REMARKS
OMAHA EPPLEY   CLEAR     71  62  73 SE6       30.15R
BLAIR          CLEAR     68  58  70 SW7       30.16S
FREMONT        CLEAR     71  59  65 SW6       30.17R
OFFUTT AFB     CLEAR     68  62  82 S2        30.15R
$$


USA.gov is the U.S. government's official web portal to all federal, state and local government web resources and services.